COSMOS 2435 (GLONASS)

Satellite information

Favourite Embed

Satellite Type and Status

PAYLOADIN ORBIT

Key statistics

Satellite COSMOS 2435 (GLONASS) at a glance.

Uptime

6404

Days in orbit

Revolutions

≈ 2.1

Per day

Orbit

MEO

Medium Earth Orbit

Inclination

64.3

Latest

Satellite identification and parameters

Extended collection of information and parameters for COSMOS 2435 (GLONASS).

Object identification

Identified? True

Debris? False

Object name: COSMOS 2435 (GLONASS)

International designator: 2007-065B

Object number (NORAD): 32394

Object ID (CCSDS): 32394

Country: COMMONWEALTH OF INDEPENDENT STATES (CIS)

Current information (Y/N): Y

RCS size: LARGE

Orbital parameters

Period: 675.69 minutes

Inclination: 64.3207 deg

SMA: 25506.948 km

Apoapsis: 19191.206 km

Periapsis: 19066.421 km

RAAN: 203.5713 deg

Eccentricy: 0.0024461

Argument of periapsis: 354.6112 deg

Mean anomaly: 5.4205 deg

Mean motion: 2.13115484 rev/day

Mean motion (dot): 0.00000113 rev/day2

B* drag term: 0.0 1/REarth

Two-line elements (TLE)

Creation date: July 6, 2025, 6:05 p.m.

Reference frame: TEME

Reference center: EARTH

Epoch: July 6, 2025, 12:12 p.m. UTC

TLE line 0: 0 COSMOS 2435 (GLONASS)

TLE line 1: 1 32394U 07065B 25187.50855979 .00000113 00000-0 00000-0 0 9995

TLE line 2: 2 32394 64.3207 203.5713 0024461 354.6112 5.4205 2.13115484136370

Live tracking on map

Real-time ground track for satellite COSMOS 2435 (GLONASS).

In-orbit conjunctions

There are no conjunctions computed for COSMOS 2435 (GLONASS), at the moment. Check back to stay up to date, as we update our databases every day.

Go to all conjunctions

Associated space launch

GLONASS navigation satellites

COSMOS 2435 (GLONASS) was lifted into orbit during the mission ‘Proton-M | Uragan-M 12 to 14’, on board a Proton-M space rocket.

The launch took place on Dec. 25, 2007, 7:32 p.m. from 81/24 (81P).

For more information about the launch, click the button.

Launch to space Proton-M | Uragan-M 12 to 14
Proton-M | Uragan-M 12 to 14

Agency: N/A

Status: Launch Successful

Launch date: Dec. 25, 2007, 7:32 p.m. UTC

Rocket: Proton-M

Launch pad: 81/24 (81P)

Location: Baikonur Cosmodrome, Republic of Kazakhstan

...

Latest news about this satellite

There are no fresh news available about this satellite. Check back as we update our databases every day.


Newsletter sign-up

Weekly statistics, charts and insights to help you stay on top of the space industry.